GALAXY 25 (G-25)

Last updated on Mon Oct 14 2024 00:02:37 GMT+0000 (Coordinated Universal Time)

1 24812U 97026A 24287.19176899 -.00000169 00000+0 00000+0 0 9999 2 24812 5.8388 74.7824 0004445 50.9340 324.4277 0.99093422100155
UTC large
Height (km)
Speed (km/s)
/
Latitude / Longitude
Inclination (degrees)
Orbital Period (minutes)
Azimuth
Elevation
Range (km)
Doppler Factor

Next 0 passes for location: London (51.5072 / 0.1276)

Sorry there are no passes over London.